This demonstration page uses our WeatherBlox Daily Observations layout. Learn more.

Left ArrowRight Arrow

39.01783, -85.05884

Hourly Observations for October 16, 2021

Temp ( °F °C ) Dew Point ( °F °C ) Humidity (%) Winds ( mph kmh ) Pressure ( in mb ) Visibility ( mi km ) Precip ( " mm )
12:00 am 00:00 Cloudy with Strong Thunderstorms 64 17.8 61 16.1 90 90 NW 20 31 29.79 1009 4 6 0.02 0.51
12:11 am 00:11 Cloudy with Strong Thunderstorms 64 17.8 61 16.1 90 90 NNW 15 24 29.77 1008 4 6 0.13 3.30
12:23 am 00:23 Cloudy with Light Rain 63 17.2 60 15.6 90 90 NW 8 13 29.79 1009 8 13 0.16 4.06
12:52 am 00:52 Cloudy with Light Rain 63 17.2 60 15.6 90 90 NNW 13 20 29.77 1008 9 14 0.19 4.83
1:12 am 01:12 Cloudy with Light Rain 63 17.2 60 15.6 90 90 NW 12 19 29.79 1009 10 16 0.00 0.00
1:36 am 01:36 Cloudy with Light Rain 63 17.2 60 15.6 90 90 NNW 9 15 29.78 1008 10 16 0.00 0.00
1:52 am 01:52 Cloudy with Light Rain 62 16.7 59 15 90 90 NNW 10 17 29.76 1008 8 13 0.00 0.00
2:52 am 02:52 Cloudy with Light Rain 59 15 56 13.3 90 90 NW 20 31 29.80 1009 10 16 0.02 0.51
3:41 am 03:41 Cloudy 56 13.3 52 11.1 87 87 NNW 17 28 29.83 1010 10 16 0.02 0.51
3:52 am 03:52 Cloudy with Light Rain 56 13.3 52 11.1 87 87 NNW 17 28 29.81 1010 10 16 0.02 0.51
4:02 am 04:02 Cloudy with Light Rain 56 13.3 52 11.1 87 87 NNW 15 24 29.82 1010 10 16 0.00 0.00
4:45 am 04:45 Cloudy 56 13.3 52 11.1 87 87 WNW 17 28 29.86 1011 10 16 0.00 0.00
4:52 am 04:52 Cloudy 55 12.8 51 10.6 87 87 WNW 17 28 29.84 1011 10 16 0.00 0.00
5:30 am 05:30 Cloudy 54 12.2 50 10 87 87 NW 15 24 29.87 1012 10 16 N/A
5:52 am 05:52 Mostly Cloudy 54 12.2 50 10 87 87 WNW 18 30 29.86 1011 10 16 N/A
6:52 am 06:52 Cloudy 53 11.7 45 7.2 74 74 WNW 15 24 29.89 1012 10 16 0.00 0.00
7:52 am 07:52 Cloudy 51 10.6 45 7.2 80 80 W 13 20 29.93 1014 10 16 N/A
8:52 am 08:52 Partly Cloudy 51 10.6 46 7.8 83 83 W 13 20 29.96 1015 10 16 N/A
9:52 am 09:52 Partly Cloudy 53 11.7 45 7.2 74 74 WNW 12 19 29.98 1015 10 16 N/A
10:52 am 10:52 Mostly Sunny 54 12.2 43 6.1 67 67 W 21 33 30.00 1016 10 16 N/A
11:52 am 11:52 Partly Cloudy 57 13.9 42 5.6 58 58 WNW 18 30 30.02 1017 10 16 N/A
12:52 pm 12:52 Partly Cloudy 58 14.4 39 3.9 50 50 WNW 17 28 30.03 1017 10 16 N/A
1:52 pm 13:52 Partly Cloudy 58 14.4 37 2.8 46 46 NW 18 30 30.03 1017 10 16 N/A
2:52 pm 14:52 Mostly Sunny 60 15.6 36 2.2 41 41 WNW 20 31 30.02 1017 10 16 N/A
3:52 pm 15:52 Partly Cloudy 57 13.9 35 1.7 44 44 WNW 20 31 30.03 1017 10 16 N/A
4:52 pm 16:52 Mostly Cloudy 59 15 36 2.2 42 42 WNW 17 28 30.04 1017 10 16 N/A
5:52 pm 17:52 Partly Cloudy 59 15 36 2.2 42 42 W 12 19 30.04 1017 10 16 N/A
6:52 pm 18:52 Partly Cloudy 54 12.2 37 2.8 53 53 W 8 13 30.06 1018 10 16 N/A
7:52 pm 19:52 Mostly Clear 53 11.7 37 2.8 55 55 W 10 17 30.08 1019 10 16 N/A
8:52 pm 20:52 Partly Cloudy 50 10 38 3.3 63 63 W 8 13 30.09 1019 10 16 N/A
9:52 pm 21:52 Clear 48 8.9 38 3.3 68 68 W 8 13 30.11 1020 10 16 N/A
10:52 pm 22:52 Clear 47 8.3 38 3.3 71 71 W 7 11 30.13 1020 10 16 N/A
11:52 pm 23:52 Clear 45 7.2 38 3.3 77 77 WSW 6 9 30.13 1020 10 16 N/A

Powered by AerisWeather